Precipitable_Water
1.55 1.55 1.55 1.53 1.49 1.47 1.45 1.45 1.45 1.45 1.45 1.45 1.41 1.39 1.39 1.37 1.31 1.27 1.23 1.21 1.17 1.13 1.11 1.11 1.11 1.13 1.13 1.15 1.17 1.19 1.21 1.23 1.23 1.25 1.25 1.27 1.29 1.29 1.31 1.31 1.33 1.33 1.33 1.33 1.33 1.33 1.33 1.31 1.31 1.31 1.29 1.29 1.31 1.31 1.33 1.35 1.35 1.35 1.35 1.37 1.39 1.41 1.39 1.37 1.37 1.37 1.37 1.39 1.39
1.55 1.56 1.55 1.53 1.51 1.47 1.47 1.45 1.45 1.45 1.47 1.47 1.43 1.41 1.39 1.37 1.27 1.23 1.21 1.19 1.17 1.15 1.13 1.11 1.13 1.13 1.15 1.15 1.17 1.19 1.19 1.21 1.21 1.21 1.23 1.25 1.27 1.29 1.29 1.29 1.29 1.29 1.29 1.29 1.29 1.29 1.29 1.29 1.27 1.27 1.27 1.27 1.27 1.27 1.29 1.31 1.33 1.33 1.33 1.35 1.37 1.35 1.33 1.31 1.29 1.29 1.31 1.33 1.35
1.55 1.55 1.55 1.51 1.49 1.47 1.45 1.43 1.43 1.45 1.47 1.45 1.43 1.39 1.37 1.33 1.27 1.23 1.21 1.19 1.19 1.17 1.15 1.13 1.13 1.15 1.15 1.17 1.19 1.19 1.21 1.21 1.21 1.21 1.23 1.25 1.25 1.27 1.27 1.29 1.29 1.29 1.29 1.27 1.27 1.27 1.27 1.27 1.25 1.25 1.25 1.25 1.23 1.23 1.23 1.27 1.29 1.29 1.31 1.33 1.27 1.23 1.21 1.19 1.17 1.17 1.17 1.19 1.21
1.55 1.53 1.53 1.51 1.49 1.47 1.45 1.43 1.45 1.45 1.45 1.41 1.39 1.35 1.33 1.31 1.27 1.23 1.21 1.21 1.19 1.17 1.15 1.15 1.17 1.17 1.19 1.19 1.21 1.23 1.23 1.23 1.23 1.23 1.23 1.25 1.25 1.27 1.27 1.27 1.27 1.27 1.27 1.27 1.27 1.27 1.27 1.25 1.25 1.25 1.23 1.23 1.21 1.21 1.21 1.21 1.21 1.21 1.17 1.09 1.09 1.09 1.07 1.05 1.05 1.03 1.01 1.01 0.92
1.53 1.55 1.53 1.53 1.51 1.47 1.45 1.45 1.45 1.45 1.41 1.37 1.35 1.33 1.31 1.31 1.27 1.25 1.23 1.21 1.19 1.17 1.17 1.19 1.21 1.21 1.23 1.25 1.23 1.23 1.23 1.23 1.25 1.25 1.27 1.27 1.29 1.29 1.27 1.27 1.27 1.27 1.27 1.27 1.27 1.27 1.27 1.27 1.27 1.25 1.23 1.21 1.19 1.19 1.17 1.17 1.11 1.09 1.07 1.03 1.01 1.01 0.99 0.97 0.94 0.92 0.88 0.86 0.80
1.49 1.51 1.53 1.51 1.51 1.49 1.49 1.49 1.49 1.43 1.37 1.33 1.31 1.31 1.29 1.29 1.27 1.25 1.21 1.19 1.19 1.19 1.21 1.25 1.25 1.25 1.25 1.25 1.23 1.23 1.25 1.25 1.25 1.27 1.27 1.27 1.27 1.27 1.27 1.27 1.29 1.29 1.31 1.31 1.29 1.29 1.29 1.27 1.25 1.23 1.23 1.19 1.19 1.17 1.17 1.15 1.13 1.07 1.05 1.03 0.99 0.97 0.94 0.90 0.86 0.82 0.80 0.78 0.76
1.45 1.47 1.49 1.51 1.49 1.49 1.49 1.49 1.47 1.39 1.33 1.31 1.29 1.29 1.29 1.29 1.27 1.25 1.23 1.21 1.21 1.23 1.25 1.27 1.27 1.25 1.25 1.23 1.23 1.23 1.25 1.27 1.27 1.27 1.25 1.23 1.23 1.23 1.23 1.25 1.27 1.31 1.31 1.33 1.31 1.29 1.27 1.25 1.23 1.21 1.19 1.17 1.17 1.17 1.17 1.17 1.15 1.05 0.94 0.88 0.88 0.86 0.84 0.82 0.82 0.80 0.78 0.76 0.74
1.41 1.43 1.45 1.45 1.47 1.47 1.47 1.45 1.43 1.37 1.31 1.31 1.31 1.31 1.31 1.31 1.29 1.27 1.25 1.23 1.23 1.23 1.23 1.25 1.25 1.23 1.23 1.23 1.23 1.23 1.25 1.27 1.27 1.25 1.23 1.21 1.21 1.23 1.23 1.25 1.27 1.29 1.31 1.33 1.29 1.27 1.23 1.23 1.21 1.19 1.17 1.15 1.13 1.11 1.11 1.07 1.03 0.92 0.80 0.78 0.78 0.78 0.78 0.78 0.78 0.78 0.76 0.76 0.74
1.37 1.39 1.41 1.43 1.45 1.43 1.43 1.39 1.39 1.35 1.31 1.31 1.31 1.31 1.31 1.31 1.29 1.27 1.25 1.23 1.23 1.23 1.23 1.23 1.23 1.23 1.23 1.23 1.23 1.25 1.25 1.27 1.25 1.23 1.21 1.21 1.21 1.23 1.25 1.25 1.25 1.25 1.25 1.25 1.17 1.13 1.11 1.11 1.09 1.07 1.05 1.03 0.99 0.95 0.94 0.90 0.86 0.80 0.74 0.74 0.74 0.74 0.76 0.76 0.76 0.76 0.76 0.76 0.74
1.35 1.35 1.37 1.37 1.39 1.41 1.43 1.41 1.39 1.35 1.31 1.31 1.31 1.31 1.31 1.29 1.27 1.25 1.25 1.23 1.23 1.23 1.23 1.23 1.23 1.21 1.21 1.21 1.23 1.25 1.25 1.27 1.25 1.23 1.21 1.21 1.21 1.19 1.19 1.17 1.15 1.13 1.13 1.11 1.01 0.97 0.95 0.94 0.92 0.90 0.90 0.88 0.86 0.84 0.82 0.80 0.74 0.72 0.72 0.72 0.72 0.72 0.74 0.76 0.76 0.76 0.76 0.74 0.74
1.33 1.35 1.37 1.37 1.39 1.41 1.41 1.37 1.33 1.29 1.27 1.27 1.25 1.25 1.25 1.25 1.25 1.23 1.23 1.23 1.21 1.21 1.21 1.21 1.19 1.19 1.19 1.21 1.21 1.23 1.25 1.25 1.23 1.19 1.17 1.15 1.13 1.11 1.09 1.05 1.03 1.01 0.97 0.90 0.90 0.88 0.86 0.84 0.82 0.82 0.82 0.80 0.80 0.80 0.78 0.76 0.72 0.72 0.72 0.72 0.72 0.72 0.72 0.74 0.74 0.76 0.74 0.72 0.72
1.31 1.35 1.39 1.43 1.41 1.39 1.35 1.29 1.27 1.25 1.23 1.23 1.23 1.23 1.23 1.23 1.23 1.23 1.21 1.21 1.19 1.19 1.19 1.19 1.19 1.19 1.19 1.21 1.21 1.21 1.19 1.19 1.15 1.11 1.09 1.07 1.05 1.03 1.01 0.99 0.95 0.92 0.90 0.86 0.84 0.84 0.82 0.80 0.78 0.76 0.76 0.76 0.76 0.74 0.74 0.72 0.72 0.72 0.72 0.72 0.72 0.72 0.72 0.72 0.72 0.72 0.72 0.70 0.68
1.35 1.37 1.41 1.39 1.35 1.31 1.27 1.25 1.23 1.23 1.23 1.21 1.21 1.21 1.21 1.21 1.23 1.23 1.21 1.19 1.19 1.19 1.19 1.19 1.21 1.21 1.19 1.19 1.17 1.15 1.13 1.11 1.07 1.05 1.03 1.01 0.99 0.97 0.95 0.94 0.90 0.86 0.84 0.82 0.82 0.80 0.78 0.78 0.74 0.74 0.72 0.72 0.72 0.72 0.72 0.72 0.72 0.72 0.70 0.70 0.70 0.70 0.70 0.70 0.70 0.68 0.68 0.66 0.66
1.37 1.35 1.33 1.29 1.27 1.25 1.23 1.23 1.25 1.25 1.23 1.23 1.23 1.23 1.21 1.21 1.21 1.21 1.19 1.19 1.19 1.21 1.21 1.23 1.23 1.19 1.17 1.13 1.11 1.09 1.05 1.03 1.01 0.99 0.97 0.95 0.94 0.92 0.90 0.88 0.86 0.84 0.82 0.80 0.80 0.78 0.78 0.76 0.74 0.74 0.72 0.72 0.72 0.72 0.72 0.72 0.72 0.70 0.70 0.68 0.68 0.68 0.68 0.68 0.68 0.66 0.64 0.64 0.62
1.33 1.27 1.23 1.21 1.21 1.23 1.25 1.27 1.27 1.27 1.27 1.25 1.25 1.23 1.23 1.21 1.21 1.19 1.17 1.17 1.17 1.19 1.21 1.21 1.19 1.15 1.11 1.07 1.05 1.01 0.99 0.97 0.97 0.95 0.92 0.92 0.90 0.90 0.88 0.86 0.84 0.82 0.82 0.80 0.80 0.78 0.78 0.76 0.74 0.74 0.72 0.72 0.72 0.72 0.72 0.70 0.70 0.68 0.68 0.66 0.66 0.66 0.66 0.66 0.66 0.64 0.64 0.62 0.62
1.25 1.21 1.21 1.21 1.25 1.27 1.29 1.29 1.29 1.27 1.27 1.25 1.25 1.23 1.21 1.19 1.17 1.13 1.11 1.11 1.11 1.13 1.13 1.13 1.11 1.09 1.05 1.03 1.01 0.97 0.95 0.94 0.94 0.92 0.90 0.88 0.88 0.86 0.86 0.82 0.82 0.80 0.80 0.78 0.78 0.76 0.76 0.76 0.74 0.74 0.72 0.70 0.70 0.70 0.68 0.68 0.68 0.68 0.66 0.66 0.66 0.66 0.64 0.64 0.66 0.66 0.66 0.64 0.64
1.21 1.23 1.25 1.27 1.29 1.29 1.27 1.27 1.27 1.25 1.25 1.23 1.23 1.21 1.19 1.15 1.13 1.09 1.07 1.05 1.03 1.03 1.03 1.03 1.05 1.05 1.03 1.01 0.97 0.95 0.94 0.92 0.90 0.90 0.88 0.84 0.84 0.84 0.82 0.80 0.78 0.78 0.78 0.76 0.74 0.74 0.72 0.72 0.72 0.72 0.70 0.70 0.68 0.68 0.66 0.66 0.66 0.66 0.66 0.66 0.66 0.66 0.66 0.66 0.66 0.66 0.66 0.66 0.64
1.23 1.27 1.29 1.27 1.27 1.25 1.23 1.23 1.23 1.23 1.21 1.21 1.19 1.17 1.15 1.13 1.11 1.07 1.03 1.01 0.97 0.95 0.95 0.95 0.97 0.97 0.97 0.95 0.94 0.92 0.90 0.88 0.86 0.86 0.84 0.82 0.82 0.80 0.78 0.76 0.76 0.74 0.74 0.72 0.70 0.70 0.70 0.68 0.68 0.68 0.68 0.68 0.66 0.66 0.66 0.66 0.66 0.66 0.66 0.66 0.66 0.66 0.66 0.66 0.66 0.66 0.66 0.66 0.64
1.25 1.25 1.25 1.23 1.21 1.19 1.17 1.17 1.17 1.17 1.15 1.15 1.13 1.11 1.09 1.09 1.07 1.03 0.99 0.97 0.95 0.94 0.92 0.92 0.92 0.92 0.92 0.90 0.88 0.88 0.86 0.84 0.84 0.82 0.82 0.80 0.78 0.76 0.74 0.72 0.72 0.70 0.70 0.68 0.68 0.66 0.66 0.66 0.66 0.66 0.66 0.66 0.66 0.66 0.66 0.66 0.66 0.66 0.66 0.66 0.66 0.66 0.66 0.66 0.66 0.68 0.66 0.66 0.66
1.23 1.21 1.19 1.17 1.15 1.13 1.11 1.11 1.09 1.09 1.07 1.05 1.05 1.03 1.01 1.01 0.99 0.97 0.95 0.94 0.94 0.92 0.92 0.90 0.90 0.88 0.88 0.86 0.86 0.84 0.84 0.82 0.82 0.80 0.80 0.76 0.74 0.72 0.70 0.68 0.68 0.66 0.66 0.66 0.66 0.66 0.66 0.66 0.66 0.66 0.66 0.66 0.66 0.66 0.66 0.66 0.68 0.68 0.68 0.68 0.66 0.66 0.66 0.68 0.68 0.68 0.68 0.68 0.68
1.17 1.13 1.11 1.07 1.05 1.03 1.03 1.01 1.01 0.99 0.99 0.97 0.97 0.95 0.95 0.95 0.94 0.94 0.92 0.92 0.92 0.90 0.90 0.88 0.88 0.86 0.86 0.84 0.82 0.82 0.82 0.82 0.80 0.78 0.76 0.72 0.70 0.68 0.68 0.66 0.66 0.66 0.66 0.66 0.66 0.66 0.66 0.66 0.66 0.66 0.66 0.66 0.66 0.66 0.66 0.66 0.66 0.66 0.66 0.66 0.66 0.66 0.68 0.68 0.68 0.70 0.70 0.70 0.70
1.05 1.03 1.01 0.99 0.97 0.95 0.95 0.95 0.94 0.94 0.92 0.92 0.92 0.92 0.90 0.90 0.90 0.90 0.90 0.90 0.88 0.88 0.86 0.86 0.84 0.84 0.82 0.82 0.80 0.80 0.78 0.78 0.76 0.74 0.70 0.68 0.68 0.68 0.66 0.66 0.66 0.66 0.66 0.66 0.66 0.66 0.66 0.66 0.66 0.66 0.66 0.66 0.66 0.66 0.66 0.66 0.66 0.66 0.66 0.66 0.66 0.68 0.68 0.68 0.68 0.70 0.70 0.70 0.70
0.95 0.95 0.94 0.92 0.92 0.90 0.90 0.90 0.88 0.88 0.88 0.88 0.88 0.88 0.88 0.86 0.86 0.86 0.86 0.86 0.86 0.84 0.84 0.82 0.82 0.80 0.80 0.78 0.76 0.76 0.74 0.74 0.70 0.68 0.68 0.66 0.66 0.66 0.68 0.68 0.66 0.66 0.66 0.66 0.66 0.66 0.66 0.66 0.66 0.66 0.66 0.66 0.66 0.66 0.66 0.66 0.66 0.66 0.66 0.66 0.66 0.68 0.68 0.68 0.70 0.70 0.70 0.70 0.70
0.90 0.88 0.88 0.88 0.86 0.86 0.86 0.86 0.84 0.84 0.84 0.84 0.84 0.84 0.84 0.84 0.84 0.84 0.84 0.82 0.82 0.80 0.80 0.80 0.78 0.78 0.78 0.76 0.74 0.72 0.70 0.68 0.66 0.66 0.66 0.66 0.66 0.68 0.68 0.66 0.66 0.66 0.66 0.66 0.66 0.66 0.66 0.66 0.66 0.66 0.66 0.66 0.66 0.66 0.66 0.66 0.66 0.66 0.66 0.66 0.66 0.66 0.68 0.68 0.68 0.70 0.70 0.70 0.72
0.84 0.84 0.84 0.84 0.84 0.84 0.84 0.84 0.82 0.82 0.82 0.82 0.82 0.82 0.82 0.82 0.80 0.80 0.80 0.78 0.78 0.78 0.78 0.76 0.76 0.76 0.74 0.74 0.72 0.70 0.68 0.66 0.66 0.66 0.66 0.66 0.66 0.66 0.68 0.68 0.68 0.68 0.68 0.68 0.68 0.68 0.68 0.68 0.66 0.66 0.66 0.66 0.66 0.66 0.66 0.66 0.66 0.66 0.66 0.66 0.66 0.66 0.66 0.66 0.68 0.68 0.70 0.70 0.72
0.82 0.82 0.82 0.82 0.82 0.82 0.80 0.80 0.80 0.80 0.80 0.80 0.80 0.80 0.78 0.78 0.78 0.78 0.78 0.76 0.76 0.76 0.76 0.74 0.74 0.72 0.72 0.70 0.68 0.66 0.66 0.66 0.66 0.66 0.66 0.66 0.66 0.68 0.68 0.68 0.68 0.68 0.68 0.68 0.68 0.68 0.68 0.68 0.68 0.68 0.68 0.66 0.66 0.66 0.66 0.66 0.66 0.66 0.66 0.66 0.66 0.64 0.66 0.66 0.66 0.68 0.70 0.70 0.72
0.80 0.80 0.80 0.80 0.80 0.80 0.78 0.78 0.78 0.78 0.78 0.78 0.78 0.78 0.78 0.78 0.78 0.78 0.76 0.74 0.74 0.74 0.72 0.72 0.70 0.70 0.68 0.66 0.66 0.66 0.66 0.66 0.66 0.66 0.68 0.68 0.68 0.68 0.68 0.68 0.68 0.68 0.68 0.68 0.68 0.68 0.68 0.68 0.68 0.68 0.68 0.68 0.66 0.64 0.64 0.64 0.64 0.64 0.64 0.64 0.64 0.64 0.64 0.64 0.66 0.68 0.68 0.70 0.72
0.78 0.78 0.78 0.78 0.78 0.78 0.78 0.78 0.78 0.78 0.78 0.78 0.78 0.78 0.78 0.78 0.76 0.76 0.74 0.74 0.72 0.70 0.70 0.70 0.68 0.68 0.66 0.66 0.66 0.66 0.66 0.68 0.68 0.68 0.68 0.68 0.68 0.68 0.68 0.66 0.68 0.68 0.68 0.68 0.68 0.68 0.68 0.68 0.68 0.68 0.68 0.68 0.66 0.66 0.64 0.64 0.64 0.64 0.64 0.64 0.64 0.64 0.66 0.66 0.66 0.68 0.68 0.70 0.72
0.78 0.78 0.78 0.78 0.78 0.78 0.78 0.78 0.78 0.78 0.76 0.76 0.76 0.76 0.74 0.74 0.72 0.72 0.70 0.70 0.68 0.68 0.68 0.68 0.68 0.68 0.66 0.66 0.66 0.66 0.68 0.68 0.68 0.68 0.68 0.68 0.68 0.68 0.66 0.66 0.66 0.68 0.68 0.68 0.68 0.68 0.68 0.68 0.68 0.68 0.68 0.68 0.66 0.66 0.66 0.64 0.64 0.64 0.64 0.64 0.64 0.66 0.66 0.66 0.66 0.68 0.68 0.68 0.72
0.76 0.76 0.78 0.76 0.76 0.76 0.76 0.76 0.76 0.76 0.74 0.74 0.74 0.72 0.72 0.70 0.70 0.68 0.68 0.68 0.66 0.68 0.68 0.68 0.68 0.68 0.68 0.68 0.68 0.68 0.68 0.68 0.68 0.68 0.68 0.66 0.66 0.66 0.66 0.66 0.66 0.66 0.68 0.68 0.68 0.68 0.68 0.68 0.68 0.68 0.68 0.68 0.66 0.66 0.66 0.66 0.64 0.64 0.64 0.66 0.66 0.66 0.66 0.66 0.68 0.68 0.68 0.70 0.70
0.74 0.74 0.74 0.74 0.74 0.74 0.74 0.74 0.74 0.74 0.72 0.72 0.70 0.70 0.68 0.68 0.68 0.66 0.68 0.68 0.70 0.70 0.70 0.70 0.70 0.70 0.70 0.70 0.70 0.70 0.68 0.68 0.68 0.68 0.68 0.66 0.66 0.66 0.66 0.66 0.66 0.66 0.68 0.68 0.68 0.68 0.68 0.68 0.68 0.68 0.68 0.68 0.66 0.66 0.66 0.66 0.66 0.64 0.64 0.66 0.66 0.66 0.66 0.68 0.68 0.68 0.68 0.70 0.70
0.74 0.74 0.72 0.72 0.72 0.72 0.74 0.74 0.74 0.74 0.72 0.72 0.70 0.70 0.70 0.70 0.70 0.70 0.72 0.72 0.72 0.72 0.72 0.72 0.70 0.70 0.70 0.70 0.70 0.70 0.68 0.68 0.68 0.68 0.68 0.66 0.66 0.66 0.66 0.66 0.66 0.66 0.68 0.68 0.68 0.68 0.68 0.68 0.68 0.68 0.68 0.68 0.68 0.66 0.66 0.66 0.66 0.64 0.66 0.66 0.66 0.68 0.68 0.68 0.68 0.68 0.70 0.70 0.70
0.72 0.72 0.72 0.72 0.72 0.72 0.74 0.74 0.76 0.76 0.76 0.74 0.74 0.74 0.74 0.72 0.72 0.72 0.72 0.74 0.74 0.74 0.72 0.72 0.72 0.70 0.70 0.70 0.70 0.68 0.68 0.68 0.68 0.68 0.68 0.66 0.66 0.66 0.66 0.66 0.66 0.68 0.68 0.68 0.68 0.68 0.68 0.70 0.70 0.70 0.68 0.68 0.68 0.66 0.66 0.66 0.66 0.66 0.66 0.66 0.66 0.68 0.68 0.68 0.68 0.70 0.70 0.70 0.72
0.72 0.72 0.74 0.74 0.74 0.74 0.74 0.76 0.76 0.76 0.76 0.76 0.76 0.76 0.76 0.74 0.74 0.74 0.74 0.74 0.74 0.74 0.74 0.74 0.72 0.72 0.72 0.70 0.70 0.68 0.68 0.68 0.68 0.68 0.66 0.66 0.66 0.66 0.66 0.66 0.66 0.68 0.68 0.70 0.70 0.70 0.70 0.70 0.70 0.70 0.70 0.68 0.68 0.68 0.66 0.66 0.66 0.66 0.66 0.66 0.66 0.68 0.68 0.70 0.70 0.70 0.70 0.72 0.72
0.74 0.74 0.74 0.74 0.74 0.76 0.76 0.76 0.76 0.76 0.76 0.76 0.76 0.76 0.76 0.76 0.74 0.74 0.74 0.74 0.74 0.74 0.74 0.74 0.72 0.72 0.72 0.70 0.70 0.68 0.68 0.68 0.66 0.66 0.66 0.66 0.66 0.66 0.66 0.66 0.68 0.68 0.70 0.70 0.70 0.70 0.70 0.70 0.70 0.70 0.70 0.68 0.68 0.68 0.66 0.66 0.66 0.66 0.66 0.66 0.66 0.68 0.68 0.68 0.70 0.70 0.72 0.72 0.72
0.76 0.76 0.76 0.76 0.76 0.76 0.76 0.78 0.76 0.76 0.76 0.76 0.76 0.76 0.74 0.74 0.74 0.74 0.74 0.74 0.74 0.72 0.72 0.72 0.72 0.70 0.70 0.70 0.68 0.68 0.68 0.68 0.66 0.66 0.66 0.68 0.66 0.66 0.66 0.66 0.68 0.68 0.68 0.68 0.68 0.68 0.68 0.68 0.68 0.68 0.68 0.68 0.68 0.68 0.66 0.66 0.66 0.66 0.66 0.66 0.68 0.68 0.68 0.68 0.70 0.70 0.72 0.72 0.74
0.78 0.78 0.78 0.78 0.78 0.78 0.78 0.76 0.76 0.76 0.74 0.74 0.74 0.74 0.74 0.74 0.74 0.74 0.74 0.74 0.72 0.72 0.70 0.70 0.70 0.68 0.68 0.68 0.68 0.68 0.68 0.68 0.68 0.68 0.68 0.68 0.68 0.66 0.66 0.66 0.68 0.68 0.68 0.68 0.68 0.68 0.68 0.68 0.68 0.68 0.68 0.68 0.68 0.66 0.66 0.66 0.66 0.66 0.66 0.68 0.68 0.68 0.68 0.70 0.70 0.70 0.72 0.72 0.74
0.78 0.78 0.78 0.78 0.78 0.76 0.76 0.76 0.76 0.74 0.74 0.74 0.74 0.74 0.74 0.74 0.74 0.74 0.74 0.74 0.72 0.70 0.70 0.68 0.68 0.68 0.68 0.68 0.68 0.68 0.68 0.68 0.68 0.68 0.68 0.68 0.68 0.66 0.66 0.66 0.66 0.66 0.66 0.66 0.66 0.66 0.66 0.68 0.68 0.68 0.68 0.68 0.66 0.66 0.66 0.66 0.66 0.66 0.66 0.68 0.68 0.70 0.70 0.70 0.72 0.72 0.72 0.72 0.74
0.78 0.78 0.78 0.78 0.76 0.76 0.76 0.76 0.76 0.76 0.76 0.76 0.76 0.76 0.74 0.74 0.74 0.74 0.74 0.74 0.74 0.72 0.70 0.68 0.68 0.68 0.68 0.68 0.68 0.68 0.68 0.68 0.68 0.68 0.68 0.66 0.66 0.66 0.66 0.66 0.66 0.66 0.66 0.66 0.66 0.68 0.68 0.68 0.68 0.68 0.68 0.68 0.68 0.68 0.66 0.66 0.66 0.66 0.66 0.68 0.68 0.70 0.70 0.72 0.72 0.72 0.72 0.74 0.74
0.78 0.78 0.78 0.76 0.76 0.76 0.76 0.76 0.76 0.76 0.76 0.76 0.74 0.74 0.74 0.74 0.74 0.74 0.76 0.76 0.74 0.74 0.72 0.72 0.70 0.70 0.70 0.70 0.68 0.68 0.68 0.68 0.68 0.68 0.66 0.66 0.66 0.66 0.66 0.66 0.66 0.66 0.66 0.66 0.66 0.68 0.68 0.68 0.68 0.68 0.68 0.68 0.68 0.66 0.66 0.66 0.66 0.66 0.66 0.68 0.68 0.70 0.70 0.72 0.72 0.72 0.74 0.74 0.74
0.78 0.78 0.78 0.76 0.76 0.76 0.76 0.76 0.76 0.76 0.76 0.76 0.76 0.76 0.76 0.76 0.76 0.76 0.76 0.76 0.74 0.74 0.74 0.74 0.72 0.70 0.70 0.70 0.68 0.66 0.66 0.66 0.66 0.66 0.66 0.66 0.66 0.66 0.66 0.64 0.64 0.64 0.64 0.64 0.66 0.66 0.66 0.66 0.66 0.66 0.66 0.66 0.66 0.66 0.66 0.66 0.64 0.64 0.64 0.66 0.66 0.68 0.70 0.70 0.72 0.72 0.72 0.74 0.74
Wind_Speed
26 26 26 26 26 25 25 25 24 23 23 22 21 21 21 22 22 22 22 22 21 21 20 20 20 20 20 19 19 19 19 19 19 19 20 20 21 22 22 23 23 24 24 25 25 25 25 25 25 25 25 25 25 26 27 27 28 28 28 27 27 26 26 26 26 26 28 29 30
26 26 26 26 27 26 26 25 24 23 23 22 21 22 22 23 23 23 23 23 22 21 21 21 21 21 21 20 20 20 20 20 20 20 20 21 21 21 22 22 23 23 23 24 24 24 24 24 23 23 23 23 24 25 25 26 26 26 27 26 26 25 26 26 27 29 31 32 34
26 26 27 27 27 26 26 25 24 24 23 22 22 23 23 24 24 24 24 23 22 22 22 22 22 22 21 21 21 21 21 21 21 21 21 21 21 21 22 22 22 22 22 22 22 22 22 22 22 22 23 23 24 24 25 25 25 26 26 26 26 26 27 28 30 32 34 35 36
26 27 27 27 27 26 26 25 25 24 23 23 23 23 24 24 24 24 24 23 22 22 22 22 22 22 22 22 22 22 22 22 21 21 21 21 21 22 22 22 22 22 21 21 21 21 22 22 23 23 23 24 24 25 25 25 26 26 26 27 27 28 30 31 33 34 35 36 36
27 28 27 27 27 26 25 25 25 25 24 24 24 24 24 25 24 24 23 22 22 22 22 22 22 22 22 22 22 22 22 22 22 22 21 21 22 22 22 22 22 22 22 22 22 23 23 24 24 25 25 26 26 26 27 27 27 28 28 29 29 30 32 33 34 34 35 35 34
28 29 28 28 27 27 26 26 26 25 24 24 24 24 25 25 24 23 23 22 22 22 22 22 22 22 22 22 22 23 23 23 23 22 22 22 22 22 23 23 24 24 24 24 24 25 25 25 26 26 27 27 28 28 28 28 29 29 29 30 31 31 32 32 33 33 33 33 33
29 29 29 29 28 27 27 27 26 25 24 24 25 25 25 25 24 23 22 22 22 22 22 23 23 22 22 22 22 23 23 24 23 23 23 23 23 24 24 24 25 26 26 27 26 26 27 27 27 27 28 28 28 29 29 29 29 30 31 31 31 31 31 31 32 32 32 32 33
30 30 30 30 29 28 28 28 27 26 25 25 26 26 26 26 25 24 23 23 23 23 23 23 23 23 23 23 23 23 23 24 24 24 24 24 24 24 25 25 25 26 27 27 27 27 27 27 27 27 27 28 28 29 29 29 30 31 31 31 31 31 31 31 31 31 32 32 32
31 31 31 30 30 29 29 29 27 26 25 26 27 27 27 26 26 25 24 24 24 24 24 23 23 23 23 23 23 23 23 23 24 24 24 24 24 25 25 25 26 26 26 27 27 27 27 27 27 27 27 28 28 29 29 30 30 30 31 31 31 31 31 31 31 31 32 32 32
32 31 31 30 30 30 29 28 26 26 26 26 27 27 27 26 26 25 25 25 25 24 24 23 23 23 24 24 24 24 23 23 23 24 24 25 25 26 26 26 26 26 26 27 27 27 27 27 27 27 28 28 28 29 29 29 30 30 30 30 31 31 31 31 32 32 32 33 33
31 31 30 30 29 28 26 25 25 25 25 26 26 26 26 26 25 25 25 25 24 24 24 24 24 24 24 24 24 23 23 23 24 24 25 26 26 26 26 26 26 26 27 27 27 27 27 27 27 28 28 28 28 29 29 30 30 30 31 31 31 31 32 32 33 33 33 34 34
30 29 27 26 25 24 24 24 24 24 24 25 25 25 26 25 25 25 25 24 24 24 24 24 24 24 24 24 23 23 23 24 24 25 25 26 26 26 26 26 26 27 27 27 27 27 27 27 27 28 28 29 29 29 30 30 31 31 31 32 32 33 33 33 34 34 34 35 36
26 24 23 23 23 23 22 23 23 24 24 25 25 25 25 25 25 25 24 24 24 24 24 24 24 24 24 23 23 23 24 24 25 25 25 25 26 26 26 26 27 27 27 27 27 27 27 27 28 28 29 29 30 30 30 31 31 32 32 33 33 33 34 34 35 35 35 36 37
22 22 23 23 23 22 23 24 24 25 25 25 25 25 25 25 25 24 24 24 24 24 24 24 24 23 23 23 23 24 24 24 25 25 25 25 26 26 26 27 27 27 27 27 27 27 28 28 28 29 29 30 30 31 31 31 32 32 33 33 34 34 35 35 36 36 36 37 37
22 22 23 24 24 24 24 25 25 25 25 25 24 24 24 24 24 24 24 24 24 23 23 23 23 23 23 23 23 24 24 24 25 25 25 26 26 26 27 27 27 27 27 28 28 28 28 29 29 30 30 31 31 32 32 33 33 34 34 35 35 36 36 36 37 37 37 38 38
22 23 24 25 25 25 25 24 24 23 23 23 23 23 24 24 24 24 23 23 23 23 23 23 23 23 23 23 23 24 24 24 25 25 26 26 26 26 27 27 27 27 27 28 28 28 29 29 30 30 31 32 32 33 33 34 34 35 36 36 36 37 37 37 38 38 38 38 38
24 25 25 25 25 24 23 22 22 21 21 21 21 22 22 23 23 23 22 22 22 22 22 22 22 23 23 23 24 24 24 25 25 25 26 26 26 26 26 27 27 27 28 28 29 29 30 30 31 31 32 33 33 34 35 35 36 36 37 37 38 38 38 38 38 39 39 39 39
25 25 25 24 23 22 22 21 21 21 21 20 21 21 21 22 21 21 21 21 22 22 22 22 23 23 23 24 24 25 25 25 25 26 26 26 26 26 27 27 27 28 28 29 29 30 31 31 32 32 33 34 34 35 36 36 37 37 38 38 38 38 39 39 39 39 39 39 39
24 23 22 22 22 22 22 21 21 21 21 21 21 21 21 21 21 21 21 22 22 22 22 23 23 24 24 25 25 25 25 25 25 26 26 26 27 27 27 28 28 29 29 30 30 31 32 32 33 33 34 35 35 36 36 37 37 38 38 38 38 38 38 38 38 38 38 38 38
22 22 22 21 21 22 22 21 21 21 21 21 21 21 21 21 21 22 22 22 23 23 23 24 24 24 25 25 25 26 26 26 26 26 27 27 27 28 28 29 29 29 30 31 31 32 32 33 33 34 34 35 35 36 36 37 37 37 37 37 37 37 37 37 37 37 37 37 37
22 22 22 22 22 22 22 21 21 21 21 21 21 21 21 22 22 22 22 23 23 23 24 24 25 25 25 26 26 26 27 27 27 27 27 28 28 28 29 29 29 30 31 31 32 32 33 33 34 34 35 35 35 36 36 36 36 36 36 36 36 36 36 36 36 36 36 36 36
22 22 22 22 22 22 22 22 21 21 21 21 21 21 22 22 22 23 23 24 24 24 25 25 25 26 26 26 27 27 27 27 27 28 28 28 28 29 29 29 30 30 31 31 32 33 33 33 34 34 34 34 35 35 35 35 35 35 35 35 35 35 35 35 35 35 35 35 35
22 22 22 22 22 22 22 22 22 22 22 22 22 22 23 23 24 24 24 25 25 25 25 26 26 26 27 27 27 27 27 27 28 28 28 28 29 29 30 30 30 31 31 32 32 33 33 33 33 34 34 34 34 34 34 35 35 35 35 34 34 34 34 34 34 34 35 35 35
22 23 23 23 23 23 23 23 23 23 23 23 23 24 24 24 24 25 25 25 26 26 26 26 27 27 27 27 27 27 27 27 28 28 28 29 29 30 30 30 31 31 32 32 32 33 33 33 33 33 33 33 34 34 34 34 34 34 34 34 34 34 34 34 34 34 34 34 35
23 23 23 23 23 23 23 23 23 23 24 24 24 24 25 25 25 25 26 26 26 26 26 27 27 27 27 27 27 27 27 28 28 29 29 29 30 30 30 31 31 31 32 32 32 33 33 33 33 33 33 33 34 34 34 34 34 34 34 34 34 34 34 34 34 34 34 35 35
23 23 23 23 24 24 24 24 24 24 24 24 25 25 25 25 26 26 26 26 26 26 27 27 27 27 27 27 27 28 28 28 29 29 30 30 30 30 30 31 31 31 31 32 32 33 33 33 33 33 33 33 34 34 34 34 34 33 33 33 34 34 34 35 35 35 34 35 35
23 23 24 24 24 24 24 24 24 24 24 25 25 25 25 26 26 26 26 26 26 27 27 27 27 27 27 27 28 28 28 29 29 29 30 30 30 30 30 31 31 31 31 32 32 32 33 33 33 33 33 33 33 34 34 34 34 34 33 33 34 34 34 35 35 34 34 34 34
23 24 24 24 24 24 24 24 24 24 25 25 25 25 25 26 26 26 26 26 27 27 27 27 27 27 28 28 28 28 29 29 29 29 29 29 30 30 30 31 31 31 31 32 32 32 32 33 33 33 33 33 33 33 34 34 34 34 33 33 34 34 34 34 34 34 34 34 34
24 24 24 24 24 24 24 24 24 24 25 25 25 25 25 26 26 26 26 27 27 27 27 28 28 28 28 28 28 28 28 29 29 29 29 29 29 30 30 30 30 31 31 32 32 32 32 32 33 33 33 33 33 33 33 34 34 34 33 33 33 33 34 33 33 33 33 33 33
24 24 24 24 24 24 24 24 24 25 25 25 25 25 26 26 26 26 26 27 27 27 27 27 27 27 27 28 28 28 28 28 29 29 29 29 29 30 30 30 30 31 31 31 31 32 32 32 32 32 32 32 32 32 33 33 33 33 33 33 33 33 33 33 33 32 32 32 32
23 24 24 24 24 24 24 25 25 25 25 26 26 26 26 26 26 27 27 27 27 27 27 27 27 27 27 28 28 28 28 28 29 29 29 29 29 29 30 30 30 30 31 31 31 31 32 32 32 32 32 32 32 32 32 32 32 32 32 32 32 32 32 32 32 32 31 31 31
23 23 24 24 24 24 24 25 25 25 25 25 26 26 26 26 27 27 27 27 27 27 27 27 27 27 27 27 28 28 28 28 28 29 29 29 29 29 29 29 30 30 30 31 31 31 31 32 32 32 31 31 31 31 31 31 31 31 32 32 32 32 32 31 31 31 31 30 30
23 23 23 23 24 24 24 24 24 25 25 25 26 26 26 26 26 27 27 27 27 27 27 27 27 27 27 27 28 28 28 28 28 28 29 29 29 29 29 29 29 30 30 30 31 31 31 31 31 31 31 30 30 30 30 30 30 30 31 31 31 31 31 31 31 30 30 30 29
22 22 22 23 23 23 24 24 24 24 25 25 25 26 26 26 26 26 27 27 27 27 27 27 27 27 27 27 28 28 28 28 28 28 28 28 29 29 29 29 29 30 30 30 30 31 31 30 30 30 30 30 29 29 29 29 29 30 30 30 30 30 30 30 30 30 29 29 29
22 22 22 22 23 23 23 24 24 24 25 25 25 26 26 26 26 26 26 26 27 27 27 27 27 27 27 27 27 28 28 28 28 28 28 28 28 29 29 29 29 29 30 30 30 30 30 30 29 29 29 29 29 29 29 29 29 29 29 29 29 29 29 29 29 29 28 28 28
21 22 22 22 22 23 23 23 24 24 24 25 25 26 26 26 26 27 27 27 27 27 27 27 27 27 27 27 27 27 27 28 28 28 28 28 28 29 29 29 29 29 29 29 29 29 29 29 28 28 28 28 29 29 29 29 29 29 29 28 28 28 28 28 28 28 28 27 27
21 21 22 22 22 22 23 23 23 24 24 25 25 26 26 27 27 27 27 27 27 27 27 27 27 27 27 27 27 27 27 27 27 28 28 28 28 29 29 29 29 29 29 28 28 28 28 28 28 28 28 28 28 29 29 28 28 28 28 28 28 27 27 27 27 27 27 26 26
21 21 21 21 22 22 23 23 23 24 24 25 26 26 26 27 27 27 27 27 28 28 28 28 28 28 27 27 27 27 27 27 27 27 28 28 28 28 28 28 28 28 28 28 27 27 27 28 28 28 28 28 28 28 28 28 28 28 28 28 27 27 27 27 26 26 26 26 25
20 21 21 21 22 22 23 23 24 24 25 25 26 26 26 27 27 27 27 27 28 28 28 28 28 27 27 27 27 26 27 27 27 27 27 27 27 27 27 27 27 27 27 27 27 27 27 28 28 28 28 28 28 28 28 28 28 28 28 27 27 27 27 26 26 26 25 25 25
20 21 21 22 22 23 23 24 24 24 25 25 26 26 26 26 26 26 27 27 27 27 27 27 27 27 26 26 26 26 26 26 26 26 26 26 26 26 26 26 26 26 26 26 27 27 27 28 28 28 28 28 28 28 28 27 28 27 27 27 27 27 26 26 26 25 25 25 24
21 21 22 23 23 23 24 24 24 25 25 25 25 25 25 25 25 25 25 25 25 26 26 26 25 25 25 25 25 24 24 24 24 24 24 25 25 25 25 25 25 26 26 26 27 27 27 28 28 28 28 28 27 27 27 27 27 27 27 27 27 26 26 26 25 25 24 24 24
Wind_Direction
237 237 236 236 236 236 236 238 240 242 243 243 243 243 244 246 247 248 249 249 249 249 249 249 250 252 253 255 257 259 260 261 262 263 263 264 264 265 266 267 268 268 269 270 270 271 272 272 272 272 270 269 268 268 268 268 269 270 270 270 270 270 269 269 269 270 272 274 276
238 238 238 237 237 236 237 238 240 241 241 241 241 242 244 246 248 248 249 248 248 248 248 249 250 252 254 256 258 260 261 262 264 264 265 266 267 268 268 269 270 270 271 271 271 272 272 272 272 272 271 270 270 269 270 270 270 271 271 270 269 269 268 268 270 272 274 276 278
238 238 238 238 237 236 236 238 239 239 239 239 241 243 245 247 248 248 248 247 246 246 247 249 250 252 254 257 259 261 263 264 266 267 267 268 269 269 270 270 271 271 271 271 271 271 272 272 272 272 271 271 270 270 271 272 272 272 272 272 270 269 269 270 272 274 276 277 278
238 238 238 237 237 236 237 238 238 237 237 239 241 243 245 247 247 247 246 245 244 245 246 248 250 253 255 258 260 262 264 266 267 269 269 270 270 271 271 270 270 270 270 271 271 271 272 272 272 272 271 271 271 271 272 273 274 274 274 273 272 271 271 273 274 276 277 278 278
237 238 239 238 237 238 238 238 237 237 237 239 241 242 244 244 244 244 243 242 242 244 246 249 252 254 256 259 261 263 265 266 267 269 270 271 272 272 272 272 271 270 270 271 272 272 273 273 273 273 273 273 273 273 274 275 275 276 276 275 275 274 275 275 276 277 277 278 278
237 238 239 239 239 240 240 239 237 237 238 239 239 240 241 242 242 241 240 240 242 245 248 251 254 256 258 260 262 264 265 266 267 268 270 271 272 273 273 273 272 271 271 272 273 274 275 275 275 275 275 275 275 275 275 275 275 276 276 276 276 276 276 276 277 277 278 278 279
238 239 239 240 240 240 239 238 237 238 238 236 235 236 238 240 240 240 241 243 245 248 251 253 256 258 260 262 263 265 266 267 267 268 270 271 272 272 272 272 272 272 273 273 274 275 276 276 276 276 276 276 275 275 275 275 275 275 276 276 276 277 277 277 278 278 278 278 279
241 240 240 240 240 239 238 237 238 237 235 232 232 234 237 239 241 242 243 246 248 250 253 255 257 259 261 263 265 266 267 267 268 270 271 272 273 273 272 272 272 273 273 274 274 275 275 276 276 275 275 275 274 274 274 274 275 275 275 276 276 277 277 277 278 278 278 278 279
243 242 241 241 240 239 238 238 237 234 230 229 230 233 236 239 241 243 245 247 249 251 254 256 258 260 262 264 266 267 267 268 269 271 272 273 274 274 274 273 273 273 273 273 273 273 274 274 274 274 273 273 273 273 273 273 274 275 276 276 277 277 277 277 277 278 278 278 279
243 242 242 241 241 238 236 234 231 227 225 227 230 233 236 238 241 243 245 247 250 252 255 257 259 261 263 265 266 267 268 268 269 270 272 273 274 274 274 274 274 274 274 273 273 273 272 272 271 271 271 271 271 272 273 273 274 275 276 276 277 277 277 277 277 278 278 278 279
242 241 241 240 237 232 227 223 220 220 223 227 230 233 236 239 241 243 246 248 251 253 256 258 260 262 264 266 267 268 268 268 269 270 271 272 273 273 274 274 274 274 274 274 274 273 272 272 271 271 271 272 272 273 274 275 276 277 277 277 278 278 278 278 278 278 279 279 279
240 238 234 228 222 217 215 215 218 222 226 230 233 236 238 241 243 245 247 250 252 255 257 259 261 263 264 266 267 268 268 268 269 269 270 271 273 273 274 274 275 275 275 274 274 274 273 273 273 273 273 274 274 275 276 277 277 278 278 279 279 279 279 279 280 280 280 280 280
230 223 215 208 207 210 215 220 225 230 234 236 239 240 242 243 245 247 249 252 254 256 258 260 262 263 264 265 266 267 268 269 270 271 271 272 273 274 274 275 275 275 275 275 274 274 274 274 274 275 275 276 276 277 278 278 279 279 280 280 280 280 280 280 280 281 281 281 281
208 204 204 208 215 222 227 232 236 239 241 242 243 244 244 245 246 249 251 254 255 257 259 261 262 263 264 265 266 268 269 270 271 272 272 273 274 274 275 275 275 275 275 275 275 275 275 275 276 276 277 278 278 279 279 279 280 280 280 281 281 281 281 281 281 281 282 282 282
203 209 216 223 229 234 238 240 242 244 244 244 245 245 245 246 248 250 253 255 256 258 259 260 261 263 264 266 268 269 270 271 272 273 273 274 275 275 275 275 275 275 275 275 275 276 276 276 277 278 279 279 280 280 280 281 281 281 281 281 282 282 282 282 282 282 282 282 283
217 225 230 235 239 241 242 243 244 244 244 243 244 245 246 247 249 252 254 256 258 259 260 260 262 264 267 269 270 271 271 272 273 273 274 274 275 275 275 275 275 275 275 276 276 277 277 278 279 279 280 280 281 281 281 281 281 282 282 282 282 282 283 283 283 283 283 283 283
232 237 240 242 241 240 240 241 242 243 243 244 245 246 248 249 251 252 254 256 259 261 262 263 264 266 268 270 271 271 272 273 273 274 274 274 274 274 274 275 275 275 276 277 277 278 278 279 279 280 280 281 281 281 282 282 282 282 282 282 283 283 283 283 283 283 283 283 282
241 243 243 241 239 238 239 241 242 243 244 246 247 249 251 252 253 255 256 258 260 262 264 266 267 267 268 269 271 272 272 273 273 274 274 274 274 274 275 275 276 276 277 278 278 279 279 280 280 281 281 281 282 282 282 282 282 282 282 283 283 283 283 283 283 283 282 282 282
241 241 240 238 239 240 241 243 245 246 247 249 250 251 253 255 257 258 260 262 263 264 265 266 267 268 269 270 271 272 273 273 274 274 274 274 275 275 275 276 277 277 278 279 279 279 280 280 281 281 282 282 282 283 283 283 283 283 283 283 283 283 283 283 282 282 282 282 282
238 238 239 239 241 243 245 247 249 250 251 252 253 255 256 258 260 261 262 264 265 265 266 267 268 268 269 270 272 272 273 274 274 274 274 275 275 276 276 277 277 278 279 279 280 280 281 281 282 282 283 283 283 283 283 283 283 283 283 283 282 282 282 282 282 282 282 282 282
239 240 241 243 245 247 249 251 253 253 254 255 256 257 258 260 261 263 264 265 266 267 267 268 268 269 270 271 272 272 273 274 274 274 275 276 276 277 277 278 278 279 279 280 280 281 282 282 283 283 283 284 284 284 284 283 283 283 283 282 282 282 282 282 282 282 282 282 282
243 244 245 247 248 250 252 253 254 255 256 257 258 259 260 262 263 264 265 266 267 268 268 269 269 270 270 271 271 272 272 273 274 274 275 276 276 277 277 278 278 279 280 281 281 282 282 283 283 283 284 284 284 284 284 284 283 283 283 282 282 282 282 282 282 283 283 283 283
245 247 248 250 251 252 253 254 255 256 257 259 260 261 262 263 265 266 267 268 268 268 269 269 269 269 270 270 271 271 272 273 274 275 275 276 276 277 277 278 279 280 280 281 282 282 283 283 283 283 283 284 284 284 284 284 284 284 283 283 283 283 283 283 283 284 284 284 284
246 248 249 251 252 253 254 256 257 258 259 260 262 263 264 265 266 267 268 268 268 268 268 268 269 269 269 270 271 271 272 273 274 275 276 276 277 277 278 279 280 280 281 282 282 283 283 283 283 283 283 283 284 284 284 284 284 284 284 284 284 284 284 284 284 284 284 284 284
247 249 250 252 253 255 256 257 258 259 260 262 263 264 265 266 266 267 267 268 268 268 268 268 269 269 270 271 272 272 273 274 274 275 276 277 277 278 279 280 280 281 281 282 283 284 284 284 284 284 284 284 284 284 284 284 284 284 284 284 284 283 283 283 284 284 284 285 285
249 250 252 253 254 256 257 258 259 260 261 262 263 264 264 265 266 266 267 267 267 268 268 269 270 270 271 272 272 273 273 274 275 275 276 277 278 279 279 280 281 281 282 283 284 284 284 285 285 284 284 284 284 284 284 284 284 284 284 284 283 283 283 284 284 284 285 285 285
250 252 253 254 255 256 257 258 259 260 260 261 262 263 264 264 265 266 266 267 267 268 269 269 270 271 271 272 272 273 274 274 275 276 276 277 278 279 279 280 281 282 282 283 284 284 285 285 285 285 285 284 284 285 285 285 284 284 284 284 284 284 284 284 285 285 285 284 285
251 252 253 254 255 256 257 257 258 259 260 260 261 263 263 264 265 265 266 266 267 268 269 269 270 271 272 272 273 273 274 274 275 276 276 277 278 279 280 281 281 282 283 283 284 284 285 285 285 286 286 285 285 285 285 285 285 284 284 284 284 284 284 284 285 285 285 285 285
251 252 253 253 254 255 256 256 257 258 259 260 262 263 264 265 265 266 266 267 267 268 269 270 270 271 272 272 273 274 274 275 275 276 277 278 279 280 281 281 282 282 283 283 284 284 285 285 286 286 287 286 286 285 285 285 285 284 284 283 283 284 284 284 284 285 285 285 285
250 251 251 252 253 254 255 256 257 258 260 261 262 263 264 265 266 266 267 267 268 268 269 270 270 271 272 272 273 274 274 275 276 276 277 279 280 280 281 281 282 282 283 284 284 285 285 286 287 287 287 287 286 286 286 286 285 285 284 283 283 283 283 284 284 284 285 284 284
249 250 251 251 252 254 255 256 258 259 260 262 263 263 264 265 266 267 267 267 268 269 270 270 270 270 271 272 273 274 274 275 276 277 278 279 280 280 281 282 282 283 283 284 285 285 286 287 287 287 288 287 287 287 286 286 286 285 284 284 283 283 283 283 284 284 284 284 284
249 250 251 252 253 254 256 257 259 260 261 262 263 264 265 265 266 267 267 268 268 269 269 269 270 270 271 272 273 274 275 275 276 277 278 279 279 280 281 282 283 283 284 285 286 286 287 287 288 288 287 287 287 287 287 286 286 286 285 284 284 283 283 283 283 283 283 283 283
250 251 252 253 254 255 257 259 260 261 262 263 264 264 265 266 267 267 268 268 268 268 268 269 269 270 271 272 273 274 275 276 276 277 278 279 280 281 282 283 283 284 285 286 286 287 287 287 288 287 287 287 287 287 287 287 287 286 286 285 284 283 283 282 282 282 282 282 282
251 252 253 254 256 257 259 260 262 263 264 264 265 266 266 267 267 268 268 268 268 268 268 268 269 270 271 273 274 275 275 276 276 277 278 279 280 281 282 283 283 284 285 285 286 286 287 287 287 287 287 287 287 287 287 287 287 287 287 286 285 284 283 282 282 282 282 281 281
253 254 255 256 257 259 260 262 263 265 266 266 267 267 268 268 268 268 268 268 268 268 268 269 269 271 272 273 274 275 275 276 277 278 279 280 280 281 282 283 283 284 284 285 285 286 286 286 286 286 286 286 286 287 287 287 288 288 287 286 286 284 283 283 282 281 281 281 280
254 255 256 258 259 261 262 264 266 267 268 268 268 269 269 269 268 268 267 267 268 268 269 269 270 271 272 273 274 275 275 276 277 278 279 280 281 281 281 282 282 283 284 284 284 285 285 285 285 286 286 286 286 287 287 288 288 288 288 287 286 285 284 283 282 282 281 280 280
256 257 258 259 261 262 264 266 267 268 269 269 270 270 269 269 268 268 267 267 268 268 269 270 271 272 273 273 274 275 276 277 278 279 279 280 280 281 281 281 282 282 283 284 284 284 284 284 285 286 286 287 287 287 288 288 288 288 288 287 286 286 285 284 283 282 281 280 280
257 258 259 261 262 264 265 267 268 269 270 270 270 270 270 269 268 267 267 267 268 268 269 270 271 272 272 273 274 275 276 277 278 279 279 280 280 280 280 280 281 282 283 283 284 284 284 284 285 286 287 287 287 288 288 288 287 287 287 287 286 285 285 284 283 282 281 281 280
258 259 261 262 264 265 266 268 269 270 270 271 271 271 270 269 268 268 267 267 268 268 269 270 270 271 272 272 273 274 276 277 278 278 279 279 279 279 280 280 281 282 283 283 284 284 284 285 285 286 287 287 287 287 288 287 287 287 287 286 286 285 284 284 283 282 281 281 280
259 260 262 264 265 266 267 268 269 270 270 271 271 271 271 270 269 268 268 268 268 269 269 270 270 270 271 272 273 274 275 276 277 278 278 278 279 279 280 280 281 282 283 284 284 284 285 285 286 287 287 287 287 287 287 287 287 287 286 286 285 285 284 284 283 282 281 281 280
261 262 263 265 267 268 268 269 270 270 271 271 272 272 272 271 270 269 268 268 268 269 269 269 270 270 271 271 272 273 274 275 276 277 277 278 279 280 280 281 282 283 284 285 285 285 286 286 287 288 288 287 287 287 287 287 287 286 286 285 285 284 283 283 282 282 281 280 280